Weather History for KCHS - December, 2013

Change the Weather History Date:

Thursday, December 19, 2013

  Actual Average Record
Temperature  
Mean Temperature 49 °F 50 °F  
Max Temperature 66 °F 61 °F 82 °F (1967)
Min Temperature 32 °F 39 °F 16 °F (1953)
Degree Days  
Heating Degree Days 16 15  
Month to date heating degree days 182 252  
Since 1 July heating degree days 487 544  
Cooling Degree Days 0 0  
Month to date cooling degree days 16 0  
Year to date cooling degree days 2445 2297  
Moisture  
Dew Point 38 °F    
Average Humidity 68    
Maximum Humidity 96    
Minimum Humidity 39    
Precipitation  
Precipitation 0.00 in 0.11 in 1.39 in (1999)
Month to date precipitation 1.39 1.82  
Year to date precipitation 57.35 49.74  
Sea Level Pressure  
Sea Level Pressure 30.32 in    
Wind  
Wind Speed 2 mph (SE)    
Max Wind Speed 10 mph    
Max Gust Speed 14 mph    
Visibility 10 miles    
Events      
T = Trace of Precipitation, MM = Missing Value Source: NWS Daily Summary

Daily Weather History Graph

Daily Weather History Graph

Search for Another Location

Airport or City:

Trip Planner

Search our weather history database for the weather conditions in past years. The results will help you decide how hot, cold, wet, or windy it might be!

Date:

Astronomy

Dec. 19, 2013 Rise Set
Actual Time 7:17 AM EST 5:16 PM EST
Civil Twilight 6:50 AM EST 5:44 PM EST
Nautical Twilight 6:19 AM EST 6:15 PM EST
Astronomical Twilight 5:49 AM EST 6:45 PM EST
Moon 7:34 PM EST (12/19) 8:41 AM EST (12/19)
Length of Visible Light 10h 53m
Length of Day
9h 59m
Waning Gibbous, 95% of the Moon is Illuminated
Dec 19
Waning Gibbous
Dec 25
Last Quarter
Jan 1
New
Jan 7
First Quarter
Jan 15
Full

Hourly Weather History & Observations

Time (EST) Temp. Dew Point Humidity Pressure Visibility Wind Dir Wind Speed Gust Speed Precip Events Conditions
12:56 AM 35.1 °F 30.9 °F 85% 30.33 in 10.0 mi Calm Calm - N/A   Clear
1:56 AM 37.0 °F 30.9 °F 79% 30.33 in 10.0 mi Calm Calm - N/A   Clear
2:56 AM 34.0 °F 30.0 °F 85% 30.34 in 10.0 mi Calm Calm - N/A   Clear
3:56 AM 34.0 °F 32.0 °F 92% 30.34 in 10.0 mi Calm Calm - N/A   Clear
4:56 AM 33.1 °F 30.0 °F 89% 30.34 in 10.0 mi Calm Calm - N/A   Scattered Clouds
5:56 AM 33.1 °F 30.9 °F 92% 30.35 in 10.0 mi Calm Calm - N/A   Partly Cloudy
6:56 AM 32.0 °F 28.9 °F 88% 30.35 in 10.0 mi Calm Calm - N/A   Partly Cloudy
7:56 AM 36.0 °F 33.1 °F 89% 30.37 in 10.0 mi Calm Calm - N/A   Partly Cloudy
8:56 AM 46.9 °F 37.9 °F 71% 30.37 in 10.0 mi Calm Calm - N/A   Partly Cloudy
9:56 AM 55.0 °F 33.1 °F 43% 30.38 in 10.0 mi Variable 3.5 mph - N/A   Partly Cloudy
10:56 AM 60.1 °F 35.1 °F 39% 30.38 in 10.0 mi Variable 3.5 mph - N/A   Partly Cloudy
11:56 AM 63.0 °F 39.0 °F 41% 30.36 in 10.0 mi Variable 3.5 mph - N/A   Partly Cloudy
12:56 PM 64.9 °F 41.0 °F 42% 30.32 in 10.0 mi SE 10.4 mph - N/A   Partly Cloudy
1:56 PM 64.9 °F 42.1 °F 43% 30.30 in 10.0 mi SSE 5.8 mph - N/A   Partly Cloudy
2:56 PM 66.0 °F 44.1 °F 45% 30.29 in 10.0 mi South 5.8 mph - N/A   Scattered Clouds
3:56 PM 64.9 °F 45.0 °F 48% 30.28 in 10.0 mi SE 6.9 mph - N/A   Scattered Clouds
4:56 PM 60.1 °F 45.0 °F 57% 30.29 in 10.0 mi SSE 4.6 mph - N/A   Scattered Clouds
5:56 PM 57.9 °F 45.0 °F 62% 30.29 in 10.0 mi ESE 5.8 mph - N/A   Scattered Clouds
6:56 PM 55.9 °F 45.0 °F 67% 30.30 in 10.0 mi Calm Calm - N/A   Mostly Cloudy
7:56 PM 54.0 °F 45.0 °F 72% 30.30 in 10.0 mi ENE 3.5 mph - N/A   Scattered Clouds
8:56 PM 52.0 °F 44.1 °F 74% 30.30 in 10.0 mi Calm Calm - N/A   Scattered Clouds
9:56 PM 50.0 °F 44.1 °F 80% 30.29 in 10.0 mi Calm Calm - N/A   Partly Cloudy
10:56 PM 48.0 °F 44.1 °F 86% 30.28 in 10.0 mi Calm Calm - N/A   Scattered Clouds
11:56 PM 50.0 °F 46.0 °F 86% 30.26 in 10.0 mi Calm Calm - N/A   Scattered Clouds